Regional Weather Roundup
Issued by NWS

Home | Current Version | Previous Version | Graphics & Text | Print | Product List | Glossary On
Versions: 1 2 3 4 5 6 7 8 9 10 11 12 13 14 15 16 17 18 19 20 21 22 23 24 25 26 27 28 29 30 31 32 33 34 35 36 37 38 39 40 41 42 43 44 45 46 47 48 49 50
000
ASUS43 KFSD 230302
RWRSD

WEATHER ROUNDUP FOR SOUTH DAKOTA
NATIONAL WEATHER SERVICE SIOUX FALLS SD
1000 PM CDT WED OCT 22 2014

NOTE: "FAIR" INDICATES FEW OR NO CLOUDS BELOW 12,000 FEET WITH NO
SIGNIFICANT WEATHER AND/OR OBSTRUCTIONS TO VISIBILITY.


SDZ001>005-009-010-012>017-230400-
NORTHWEST AND NORTH CENTRAL SOUTH DAKOTA

CITY           SKY/WX    TMP DP  RH WIND       PRES   REMARKS
FAITH            N/A     53  29  39 W6        29.98S
MOBRIDGE       CLEAR     48  37  65 NW5       29.93R
$$

SDZ012>016-024>037-041>051-057-063-072>074-230400-
SOUTHWEST AND SOUTH CENTRAL SOUTH DAKOTA

CITY           SKY/WX    TMP DP  RH WIND       PRES   REMARKS
RAPID CTY ARPT CLEAR     43  30  60 CALM      30.02S
PIERRE         CLEAR     50  38  63 SW6       29.98R
CUSTER         CLEAR     36  24  62 N3        30.08R
ELLSWORTH AFB  CLEAR     50  31  48 W7        30.01F
PHILIP         CLEAR     44  32  62 CALM      30.01R
PINE RIDGE     CLEAR     36  32  85 CALM      30.05R
SPEARFISH      FAIR      39  28  65 CALM      30.03S
WINNER         FAIR      55  40  56 SW8       30.03R
$$

SDZ004>011-016>023-039-040-230400-
NORTHEAST SOUTH DAKOTA

CITY           SKY/WX    TMP DP  RH WIND       PRES   REMARKS
ABERDEEN       CLEAR     49  47  93 S8        29.95R
WATERTOWN      MOCLDY    51  50  96 SW7       29.96S
$$

SDZ017-020-022-023-036>040-048>070-230400-
SOUTHEAST SOUTH DAKOTA

CITY           SKY/WX    TMP DP  RH WIND       PRES   REMARKS
SIOUX FALLS    CLOUDY    56  54  93 SW3       30.02R
HURON          CLEAR     51  49  92 SW7       29.98S
CHAMBERLAIN    CLEAR     44  42  91 SW3       30.00S
MITCHELL       CLEAR     51  50  96 SW6       30.01S
YANKTON          N/A     54  52  94 S3        30.04R VSB 3/4
$$

ABBREVIATIONS USED IN REMARKS
   TC - TEMPERATURE IN CELSIUS
  WCI - WIND CHILL INDEX
   HX - HEAT INDEX
  VSB - VISIBILITY




USA.gov is the U.S. government's official web portal to all federal, state and local government web resources and services.